PROFILE

 METAR AND TAF INFORMATION
ADDS - METARS form results

(0039 UTC 10 December 2019)
http://aviationweather.gov/metar/data/
 
LFPG 100030Z 27005KT CAVOK 03/M01 Q1027 NOSIG
LFPG 100000Z 27005KT CAVOK 03/M01 Q1027 NOSIG
TAF LFPG 092300Z 1000/1106 30005KT CAVOK TX07/1013Z TNM00/1005Z BECMG 1000/1002 24003KT PROB30 1005/1007 4000 BR BECMG 1008/1010 19010KT TEMPO 1015/1102 19015G25KT BECMG 1021/1023 BKN014 TEMPO 1023/1106 4000 RA BKN009 

 AIRPORT MAP

 RUNWAY INFORMATION
Runway 08L Runway length 13829 ft Runway width 148 ft
Runway elevation 338 ft Runway displaced threshold 0 ft Runway heading 85
Runway 26R Runway length 13829 ft Runway width 148 ft
Runway elevation 318 ft Runway displaced threshold 1969 ft Runway heading 265
Runway 08R Runway length 8858 ft Runway width 197 ft
Runway elevation 336 ft Runway displaced threshold 0 ft Runway heading 85
Runway 26L Runway length 8858 ft Runway width 197 ft
Runway elevation 316 ft Runway displaced threshold 0 ft Runway heading 265
Runway 09L Runway length 8858 ft Runway width 197 ft
Runway elevation 378 ft Runway displaced threshold 0 ft Runway heading 85
Runway 27R Runway length 8858 ft Runway width 197 ft
Runway elevation 392 ft Runway displaced threshold 0 ft Runway heading 265
Runway 09R Runway length 13780 ft Runway width 148 ft
Runway elevation 370 ft Runway displaced threshold 0 ft Runway heading 86
Runway 27L Runway length 13780 ft Runway width 148 ft
Runway elevation 387 ft Runway displaced threshold 1969 ft Runway heading 266

 AIRPORT FREQUENCIES
Type APP Name DE GAULLE Frequency 121.15 MHZ
Type APP Name DE GAULLE Frequency 136.275 MHZ
Type ATIS Name DE GAULLE Frequency 127.125 MHZ
Type DEP Name DE GAULLE Frequency 124.35 MHZ
Type GND Name DE GAULLE Frequency 118.1 MHZ
Type GND Name DE GAULLE Frequency 121.6 MHZ
Type PFLT Name DE GAULLE Frequency 126.65 MHZ
Type TWR Name DE GAULLE Frequency 119.25 MHZ
Type TWR Name DE GAULLE Frequency 120.65 MHZ

 AIRPORT NEAR NAVIGATION AIDS
Type VOR-DME Name Charles de Gaulle Frequency 115350 KHZ
Type VOR-DME Name Charles de Gaulle Frequency 117050 KHZ